#timestamp,LO_Frequency,Hit,StdDev 
1510160415.6,286046996.5,N
1510160435.4,286046997.6,N
1510160455.2,286046994.0,N
1510160475.0,286046994.7,N
1510160476.0,286046994.7,N
1510160495.8,286046996.2,N
1510160515.6,286046994.8,N
1510160535.4,286046990.7,N
1510160555.3,286046995.2,N
1510160575.1,286046997.4,N
1510160595.8,286046995.9,N
1510160615.7,286046993.2,N
1510160635.5,286046987.8,N
1510160655.3,286046986.4,N
1510160675.2,286046986.6,N
1510160695.9,286046989.1,N
1510160715.7,286046986.9,N
1510160735.6,286046986.0,N
1510160755.4,286046985.5,N
1510160775.2,286046984.4,N
1510160795.0,286046985.6,N
1510160795.9,286046985.6,N
1510160815.8,286046982.4,N
1510160835.6,286046980.6,N
1510160855.4,286046981.6,N
1510160875.3,286046982.0,N
1510160895.1,286046977.4,Y
1510160915.8,286046987.7,P
1510160935.7,286046983.9,P
1510160955.5,286046984.4,P
1510160975.3,286046983.9,Y
1510160995.2,286046998.1,P
1510161015.0,286046998.8,N
1510161015.9,286046998.8,N
1510161035.7,286046999.4,N
1510161055.6,286047000.2,N
1510161075.4,286046998.7,N
1510161095.2,286046999.9,N
1510161115.1,286047001.9,N
1510161116.0,286047001.9,N
1510161135.8,286047001.8,N
1510161155.6,286047003.6,N
1510161175.5,286046999.8,N
1510161195.3,286047001.3,N
1510161215.1,286047003.8,N
1510161235.9,286047003.1,N
1510161255.7,286047003.0,N
1510161275.5,286047003.1,N
1510161295.3,286047006.6,N
1510161315.2,286047006.8,N
1510161335.0,286047009.2,N
1510161335.9,286047009.2,N
1510161355.7,286047006.4,N
1510161375.6,286047008.3,N
1510161395.4,286047010.8,N
1510161415.2,286047006.2,N
1510161435.1,286047006.3,N
1510161436.0,286047006.3,N
1510161455.8,286047008.2,N
1510161475.6,286047011.3,N
1510161495.5,286047012.8,N
1510161515.3,286047014.4,Y
1510161535.1,286047009.7,P
1510161555.9,286047014.0,P
1510161575.7,286047015.4,P
1510161595.5,286047013.2,Y
1510161615.4,286047004.4,P
1510161635.2,286047001.7,N
1510161655.0,286047001.3,N
1510161655.9,286047001.3,N
1510161675.8,286047002.2,N
1510161695.6,286047000.0,N
1510161715.4,286047002.1,N
1510161735.2,286047004.1,N
1510161755.1,286047004.5,N
1510161756.0,286047004.5,N
1510161775.8,286047004.5,N
1510161795.6,286047005.8,N
1510161815.5,286047008.1,Y
1510161835.3,286047004.8,P
1510161855.1,286047007.3,P
1510161875.9,286047010.8,P
1510161895.7,286047009.8,Y
1510161915.6,286047001.4,P
1510161935.4,286047003.8,N
1510161955.2,286047003.9,N
1510161975.0,286047003.1,N
1510161976.0,286047003.1,N
1510161995.8,286047003.5,N
1510162015.6,286047007.6,Y
1510162035.5,286047001.4,P
1510162055.3,286047004.4,P
1510162075.1,286047002.0,N
1510162095.9,286047005.4,Y
1510162115.7,286047002.8,P
1510162135.5,286046999.8,P
1510162155.4,286047004.3,N
1510162175.2,286047006.0,Y
1510162195.0,286047002.2,P
1510162195.9,286047002.2,P
1510162215.8,286047001.9,P
1510162235.6,286047002.0,Y
1510162255.4,286047002.0,P
1510162275.3,286047003.9,P
1510162295.1,286047006.9,P
1510162296.0,286047006.9,Y
1510162315.8,286047006.0,P
1510162335.7,286047005.8,P
1510162355.5,286047006.9,P
1510162375.3,286047006.8,Y
1510162395.2,286047000.6,P
1510162415.0,286047000.3,N
1510162415.9,286047000.3,N
1510162435.7,286047000.0,N
1510162455.6,286046998.3,N
1510162475.4,286047002.4,N
1510162495.2,286047001.8,N
1510162515.1,286047001.0,N
1510162516.0,286047001.0,N
1510162535.8,286047001.6,N
1510162555.6,286047004.4,N
1510162575.5,286047001.8,N
1510162595.3,286047004.3,N
1510162615.1,286047003.0,N
1510162635.9,286047003.2,N
1510162655.7,286047004.9,N
1510162675.5,286047004.5,N
1510162695.4,286047006.3,Y
1510162715.2,286047006.3,P
1510162735.0,286047007.7,P
1510162735.9,286047007.7,P
1510162755.8,286047010.7,Y
1510162775.6,286047004.1,P
1510162795.4,286046999.8,N
1510162815.3,286047002.4,N
1510162835.1,286046998.4,N
1510162855.8,286046997.5,N
1510162875.7,286046997.4,N
1510162895.5,286046999.4,N
1510162915.3,286046998.4,N
1510162935.2,286047000.4,N
1510162955.9,286047000.5,N
1510162975.7,286046998.2,N
1510162995.6,286046998.4,N
1510163015.4,286046998.2,N
1510163035.2,286046999.1,N
1510163055.0,286046996.5,N
1510163055.9,286046996.5,N
1510163075.8,286046998.4,N
1510163095.6,286046999.3,N
1510163115.4,286046999.3,N
1510163135.3,286046998.3,N
1510163155.1,286046998.5,N
1510163175.8,286046998.1,N
1510163195.7,286046997.8,N
1510163215.5,286046997.8,N
1510163235.3,286046994.9,N
1510163255.2,286046995.8,N
1510163275.9,286046997.0,N
1510163295.7,286046999.7,N
1510163315.6,286047002.3,N
1510163335.4,286046999.7,N
1510163355.2,286046999.9,N
1510163375.1,286047002.4,N
1510163376.0,286047002.4,N
1510163395.8,286047001.5,N
1510163415.6,286047002.3,N
1510163435.5,286046999.4,N
1510163455.3,286046999.6,N
1510163475.1,286046993.7,Y
1510163495.9,286046993.2,P
1510163515.7,286046991.4,N
1510163535.5,286046987.6,P
1510163555.4,286046986.6,Y
1510163575.2,286046995.5,P
1510163595.0,286046993.7,P
1510163595.9,286046993.7,P
1510163615.8,286046992.6,Y
1510163635.6,286046996.6,P
1510163655.4,286046997.2,N
1510163675.3,286046997.0,N
1510163695.1,286046995.1,Y
1510163715.8,286046998.4,P
1510163735.7,286047002.6,N
1510163755.5,286046998.3,N
1510163775.3,286046998.7,N
1510163795.2,286046999.6,N
1510163815.9,286046998.9,N
1510163835.7,286047001.2,N
1510163855.6,286047001.0,N
1510163875.4,286047001.4,N
1510163895.2,286047002.7,N
1510163915.0,286047000.9,N
1510163915.9,286047000.9,N
1510163935.8,286047001.0,N
1510163955.6,286046998.9,N
1510163975.4,286046998.3,N
1510163995.3,286046998.5,N
